This is the latest recevied weather packets stored in our database for station/object OH2MUI. If no packets are shown the sender has not sent any weather packets the latest 10 day(s).
| Time | Temp. | Humidity | Pressure | Rain* | Wind** | Luminosity | Snow |
|---|---|---|---|---|---|---|---|
| 1788433269 | 16.67° C | 65% | 1005.2 hPa | 0 mm | - | - | - |
| 1788432244 | 16.67° C | 60% | 1005.3 hPa | 0 mm | - | - | - |
| 1788431120 | 17.22° C | 61% | 1005.1 hPa | 0 mm | - | - | - |
| 1788430000 | 16.67° C | 70% | 1005.3 hPa | 0 mm | - | - | - |
| 1788428973 | 15.56° C | 75% | 1005.5 hPa | 0 mm | - | - | - |
| 1788428965 | 15.56° C | 75% | 1005.5 hPa | 0 mm | - | - | - |
| 1788428006 | 16.11° C | 72% | 1005.3 hPa | 0 mm | - | - | - |
| 1788426895 | 16.67° C | 66% | 1005.6 hPa | 0 mm | - | - | - |
| 1788425850 | 15.56° C | 73% | 1005.4 hPa | 0 mm | - | - | - |
| 1788424725 | 16.67° C | 68% | 1005.5 hPa | 0 mm | - | - | - |
| 1788423589 | 15° C | 73% | 1005.5 hPa | 0 mm | - | - | - |
| 1788422525 | 16.11° C | 72% | 1005.6 hPa | 0 mm | - | - | - |
| 1788421415 | 15.56° C | 79% | 1005.5 hPa | 0.25 mm | - | - | - |
| 1788420269 | 15° C | 81% | 1005.6 hPa | 0.25 mm | - | - | - |
| 1788419090 | 15° C | 84% | 1005.5 hPa | 0 mm | - | - | - |
| 1788418130 | 14.44° C | 86% | 1005.6 hPa | 0.25 mm | - | - | - |
| 1788417158 | 14.44° C | 88% | 1005.7 hPa | 0.25 mm | - | - | - |
| 1788417155 | 14.44° C | 88% | 1005.7 hPa | 0.25 mm | - | - | - |
| 1788416027 | 13.89° C | 90% | 1005.6 hPa | 0.25 mm | - | - | - |
| 1788415040 | 13.89° C | 92% | 1005.7 hPa | 0.25 mm | - | - | - |
| 1788414009 | 12.78° C | 95% | 1005.7 hPa | 0 mm | - | - | - |
| 1788412875 | 12.78° C | 96% | 1005.9 hPa | 0 mm | - | - | - |
| 1788411753 | 12.22° C | 97% | 1006 hPa | 0.25 mm | - | - | - |
| 1788410730 | 12.78° C | 97% | 1006 hPa | 0.25 mm | - | - | - |
| 1788409602 | 12.22° C | 97% | 1006 hPa | 0.25 mm | - | - | - |
* Rain latest hour (hover to see other rain measurements)
** Current wind speed in m/s (hover to see current wind gust speed)